Location: Stonelick Lake State Park
(39.2170°N, 84.0850°W)
Time: 06:48:01
(UTC-05:00)

Amateur Radio Satellites - All Passes

Search period start: 23 January 2018 06:18
Search period end: 24 January 2018 06:18
Location: Stonelick Lake State Park, 39.2170°N, 84.0850°W

Satellite Date Start Highest point End Downlink Frequencies (MHz)
Time Altitude Azimuth
XW-2D 23 Jan 06:19:46 06:23:21 42° 99° (E) 06:26:54 145.860 - 145.880
HO-68 23 Jan 06:27:22 06:32:47 23° 93° (E) 06:38:10 435.675
RS-15 23 Jan 06:36:32 06:45:59 27° 101° (ESE) 06:55:20 29.354- 29.394
XW-2B 23 Jan 06:37:22 06:41:07 70° 101° (ESE) 06:44:49 145.730 - 145.750
DOVE 4 23 Jan 06:43:27 06:46:08 16° 293° (WNW) 06:48:54 437.250
SEEDS 23 Jan 06:46:07 06:48:03 13° 91° (E) 06:50:01 437.485
M-CUBED/EXP-1 PRIME 23 Jan 06:49:18 06:51:07 14° 298° (WNW) 06:52:55 437.505
FALCONSAT 3 23 Jan 06:54:54 06:58:17 34° 193° (SSW) 07:01:38 435.103
CUTE 1.7 + AOD 2 23 Jan 07:02:08 07:06:00 35° 97° (E) 07:09:50 437.475
STRAND 1 23 Jan 07:04:46 07:09:48 67° 74° (ENE) 07:14:53 437.568
AO-7 23 Jan 07:06:57 07:09:08 11° 316° (NW) 07:11:21 .
XW-2C 23 Jan 07:08:02 07:11:36 43° 286° (WNW) 07:15:09 145.795 - 145.815
LilacSat-2 23 Jan 07:09:10 07:12:42 38° 287° (WNW) 07:16:12 437.200
SO-50 23 Jan 07:16:56 07:18:03 11° 323° (NW) 07:19:10 436.795
FO-29 23 Jan 07:35:06 07:41:46 60° 73° (ENE) 07:47:40 435.910
KAITUO 1B 23 Jan 07:35:50 07:39:02 28° 288° (WNW) 07:42:11 145.475/437.950
CUBEBUG 2 23 Jan 07:40:13 07:44:58 64° 100° (E) 07:49:38 437.445
UWE-3 23 Jan 07:40:28 07:44:45 35° 97° (E) 07:48:56 435.000/436.395/437.385
NUDT-PHONESAT 23 Jan 07:42:09 07:45:11 25° 289° (WNW) 07:48:12 437.300
XW-2F 23 Jan 07:42:36 07:45:14 19° 291° (WNW) 07:47:51 145.980 - 146.000
CUTE-I 23 Jan 07:52:48 07:57:33 34° 292° (WNW) 08:02:18 437.470
AAUSAT CUBESAT 2 23 Jan 07:53:43 07:57:26 32° 97° (E) 08:01:06 437.432
XW-2D 23 Jan 07:55:33 07:57:07 12° 294° (WNW) 07:58:40 145.860 - 145.880
ZACube-1 23 Jan 07:58:32 08:02:26 27° 95° (E) 08:06:14 437.345
AO-73 23 Jan 08:03:42 08:07:32 27° 95° (E) 08:11:18 145.935
HO-68 23 Jan 08:13:53 08:20:57 64° 290° (WNW) 08:28:00 435.675
SEEDS 23 Jan 08:19:59 08:23:58 46° 287° (WNW) 08:27:57 437.485
BEESAT 3 23 Jan 08:22:27 08:24:51 16° 110° (ESE) 08:27:16 437.485
PCSat 23 Jan 08:30:20 08:33:48 18° 105° (ESE) 08:37:16 145.827
Oscar 11 23 Jan 08:33:49 08:37:47 34° 97° (E) 08:41:42 .
FALCONSAT 3 23 Jan 08:34:59 08:36:47 13° 207° (SSW) 08:38:36 435.103
CUTE 1.7 + AOD 2 23 Jan 08:38:40 08:41:33 18° 293° (WNW) 08:44:26 437.475
RS-15 23 Jan 08:44:45 08:57:08 83° 302° (WNW) 09:09:23 29.354- 29.394
STRAND 1 23 Jan 08:47:03 08:49:26 13° 269° (W) 08:51:49 437.568
XW-2A 23 Jan 08:54:55 08:58:06 42° 286° (WNW) 09:01:15 145.665 - 145.685
TIGRISAT 23 Jan 09:15:43 09:20:00 50° 73° (ENE) 09:24:24 435.000
BEESAT 2 23 Jan 09:16:53 09:19:18 16° 110° (ESE) 09:21:45 435.950
YUBILEINY 23 Jan 09:17:05 09:24:22 29° 69° (ENE) 09:31:35 435.215
UWE-3 23 Jan 09:17:20 09:20:56 23° 293° (WNW) 09:24:30 435.000/436.395/437.385
CUBEBUG 2 23 Jan 09:18:36 09:20:59 14° 297° (WNW) 09:23:21 437.445
FO-29 23 Jan 09:22:09 09:27:02 21° 266° (W) 09:31:35 435.910
AAUSAT CUBESAT 2 23 Jan 09:29:44 09:32:37 19° 292° (WNW) 09:35:29 437.432
UNISAT 6 23 Jan 09:31:35 09:36:01 83° 74° (ENE) 09:40:35 437.425
O/OREOS (USA 219) 23 Jan 09:34:43 09:38:29 26° 60° (ENE) 09:42:15 437.305
ZACube-1 23 Jan 09:34:48 09:38:35 26° 291° (WNW) 09:42:18 437.345
AO-73 23 Jan 09:39:53 09:43:39 26° 291° (WNW) 09:47:21 145.935
DELFI C3 23 Jan 09:40:18 09:43:53 33° 98° (E) 09:47:28 145.870
Max Valier Satellite 23 Jan 09:46:29 09:49:33 24° 96° (E) 09:52:35 145.860
BEESAT 3 23 Jan 09:58:14 10:02:01 42° 306° (NW) 10:05:50 437.485
EO-88 23 Jan 09:58:54 10:01:46 22° 95° (E) 10:04:37 145.990 - 145.960
HO-68 23 Jan 10:05:01 10:07:18 12° 309° (NW) 10:09:34 435.675
Oscar 11 23 Jan 10:10:34 10:13:39 19° 293° (WNW) 10:16:44 .
PCSat 23 Jan 10:11:19 10:16:39 60° 301° (WNW) 10:22:01 145.827
PRISM 23 Jan 10:29:34 10:33:37 79° 75° (ENE) 10:37:41 437.425
AO-85 23 Jan 10:39:49 10:41:58 14° 108° (ESE) 10:44:10 145.980
BEESAT 2 23 Jan 10:52:49 10:56:39 42° 306° (NW) 11:00:31 435.950
TIGRISAT 23 Jan 10:54:35 10:56:58 14° 269° (W) 10:59:24 435.000
POLYITAN 1 23 Jan 10:58:13 11:01:28 22° 68° (ENE) 11:04:45 437.675
RS-15 23 Jan 11:01:23 11:11:43 30° 328° (NNW) 11:21:52 29.354- 29.394
LO-87 23 Jan 11:09:32 11:12:14 20° 95° (E) 11:14:55 145.935 - 145.965
NANOSAT C BR1 23 Jan 11:10:52 11:14:23 26° 69° (ENE) 11:17:55 145.865
ESTCUBE 1 23 Jan 11:13:02 11:16:15 19° 94° (E) 11:19:27 437.505/2401.250
YUBILEINY 23 Jan 11:13:10 11:21:40 60° 269° (W) 11:30:07 435.215
O/OREOS (USA 219) 23 Jan 11:14:01 11:17:49 28° 257° (WSW) 11:21:38 437.305
DELFI C3 23 Jan 11:15:48 11:18:20 17° 293° (WNW) 11:20:52 145.870
AIST 2D 23 Jan 11:16:25 11:19:53 59° 260° (W) 11:23:22 435.315
Max Valier Satellite 23 Jan 11:20:30 11:23:11 19° 291° (WNW) 11:25:50 145.860
JUGNU 23 Jan 11:22:45 11:23:49 10° 181° (S) 11:24:54 437.505
QB50P2 23 Jan 11:27:11 11:31:17 52° 74° (ENE) 11:35:26 145.880/145.840
EO-88 23 Jan 11:32:31 11:35:16 21° 290° (WNW) 11:38:00 145.990 - 145.960
DUCHIFAT 1 23 Jan 11:52:09 11:56:19 67° 76° (ENE) 12:00:31 145.980
EO-79 23 Jan 11:56:56 12:01:09 79° 258° (WSW) 12:05:25 145.935-145.965
PCSat 23 Jan 11:59:57 12:01:11 11° 321° (NW) 12:02:25 145.827
SPROUT 23 Jan 12:11:55 12:15:01 19° 94° (E) 12:18:05 437.525
AO-85 23 Jan 12:18:03 12:21:51 45° 306° (NW) 12:25:57 145.980
SO-50 23 Jan 12:25:58 12:27:43 12° 39° (NE) 12:29:28 436.795
POLYITAN 1 23 Jan 12:33:20 12:37:03 30° 263° (W) 12:40:50 437.675
VELOX 1 23 Jan 12:36:33 12:39:41 19° 94° (E) 12:42:49 145.980
BUGSAT 1 23 Jan 12:42:34 12:46:33 53° 74° (ENE) 12:50:36 437.445
LO-87 23 Jan 12:42:38 12:45:32 23° 290° (WNW) 12:48:27 145.935 - 145.965
NANOSAT C BR1 23 Jan 12:46:34 12:50:00 24° 265° (W) 12:53:28 145.865
Oscar 19 23 Jan 12:47:24 12:52:14 41° 70° (ENE) 12:57:05 437.125/150
ESTCUBE 1 23 Jan 12:49:02 12:53:08 36° 289° (WNW) 12:57:13 437.505/2401.250
AO-91 23 Jan 12:50:13 12:53:17 33° 72° (ENE) 12:56:29 145.960
Gurwin Techsat 1B 23 Jan 12:55:50 13:00:40 37° 69° (ENE) 13:05:32 435.225
QB50P2 23 Jan 13:05:37 13:07:21 12° 269° (W) 13:09:06 145.880/145.840
RS-15 23 Jan 13:21:59 13:29:55 19° 3° (N) 13:37:37 29.354- 29.394
SRMSAT 23 Jan 13:36:40 13:37:49 11° 176° (S) 13:38:58 437.500
SPROUT 23 Jan 13:47:04 13:50:58 34° 289° (WNW) 13:54:49 437.525
UKube-1 23 Jan 14:01:53 14:04:49 18° 94° (E) 14:07:44 .
ITAMSAT 1 23 Jan 14:03:52 14:05:11 11° 59° (ENE) 14:06:32 435.822/435.867
SO-50 23 Jan 14:04:14 14:08:58 74° 57° (ENE) 14:13:44 436.795
VELOX 1 23 Jan 14:12:11 14:16:12 36° 289° (WNW) 14:20:14 145.980
AO-7 23 Jan 14:15:35 14:23:19 44° 62° (ENE) 14:31:04 .
DX 1 23 Jan 14:18:57 14:23:09 47° 100° (E) 14:27:20 434.975-435.025
BUGSAT 1 23 Jan 14:20:59 14:22:12 11° 269° (W) 14:23:27 437.445
Oscar 19 23 Jan 14:27:35 14:31:39 23° 266° (W) 14:35:45 437.125/150
AO-91 23 Jan 14:29:06 14:30:00 11° 269° (W) 14:30:55 145.960
Gurwin Techsat 1B 23 Jan 14:36:17 14:40:40 26° 265° (W) 14:45:05 435.225
50 SAT 23 Jan 14:41:28 14:44:35 84° 283° (WNW) 14:47:41 437.505
ITUPSAT 1 23 Jan 14:54:12 14:55:01 10° 90° (E) 14:55:49 437.325
MOZHAYETS 4 23 Jan 14:55:04 14:58:36 21° 94° (E) 15:02:05
BEESAT 23 Jan 15:29:03 15:33:05 27° 96° (E) 15:37:06 436.000
RS-15 23 Jan 15:36:53 15:47:29 36° 38° (NE) 15:57:32 29.354- 29.394
UKube-1 23 Jan 15:36:57 15:40:55 37° 289° (WNW) 15:44:52 .
ITAMSAT 1 23 Jan 15:38:40 15:43:50 88° 77° (ENE) 15:49:03 435.822/435.867
SO-50 23 Jan 15:47:03 15:48:49 12° 253° (WSW) 15:50:36 436.795
DX 1 23 Jan 15:56:24 15:58:55 15° 295° (WNW) 16:01:25 434.975-435.025
M-CUBED/EXP-1 PRIME 23 Jan 15:57:36 16:01:32 36° 68° (ENE) 16:05:14 437.505
AO-7 23 Jan 16:08:16 16:16:01 42° 260° (W) 16:23:51 .
DOVE 4 23 Jan 16:09:16 16:13:13 39° 73° (ENE) 16:17:05 437.250
ITUPSAT 1 23 Jan 16:28:31 16:33:20 76° 285° (WNW) 16:38:07 437.325
MOZHAYETS 4 23 Jan 16:31:35 16:35:47 35° 290° (WNW) 16:39:57
NO-84 23 Jan 16:36:43 16:39:54 68° 317° (NW) 16:42:53 435.350 FM
CUBESAT XI-V 23 Jan 16:42:10 16:46:47 74° 102° (ESE) 16:51:21 437.345
XW-2F 23 Jan 16:49:18 16:50:47 12° 66° (ENE) 16:52:16 145.980 - 146.000
HO-68 23 Jan 16:56:53 17:00:59 16° 55° (NE) 17:05:06 435.675
XW-2D 23 Jan 17:00:21 17:03:02 18° 69° (ENE) 17:05:43 145.860 - 145.880
BEESAT 23 Jan 17:06:37 17:10:48 31° 291° (WNW) 17:14:58 436.000
XW-2B 23 Jan 17:17:23 17:20:41 28° 71° (ENE) 17:23:57 145.730 - 145.750
PCSat 23 Jan 17:18:25 17:21:21 14° 43° (NE) 17:24:16 145.827
M-CUBED/EXP-1 PRIME 23 Jan 17:32:56 17:35:55 18° 260° (W) 17:38:48 437.505
CUTE-I 23 Jan 17:33:33 17:38:31 43° 70° (ENE) 17:43:31 437.470
KKS-1 23 Jan 17:38:18 17:42:30 38° 99° (E) 17:46:39 437.445
STARS 23 Jan 17:46:19 17:49:21 18° 94° (E) 17:52:23 437.465
XW-2C 23 Jan 17:47:19 17:51:08 70° 76° (ENE) 17:54:57 145.795 - 145.815
DOVE 4 23 Jan 17:48:35 17:51:04 15° 267° (W) 17:53:32 437.250
LilacSat-2 23 Jan 17:49:03 17:52:54 81° 77° (ENE) 17:56:46 437.200
RS-15 23 Jan 17:49:28 18:01:06 77° 243° (WSW) 18:12:06 29.354- 29.394
CUTE 1.7 + AOD 2 23 Jan 17:53:53 17:57:13 23° 69° (ENE) 18:00:33 437.475
KAITUO 1B 23 Jan 18:13:27 18:17:12 78° 259° (WSW) 18:20:58 145.475/437.950
BEESAT 3 23 Jan 18:15:23 18:19:18 74° 57° (ENE) 18:23:08 437.485
NUDT-PHONESAT 23 Jan 18:18:42 18:22:25 71° 259° (W) 18:26:08 437.300
XW-2F 23 Jan 18:20:47 18:24:27 45° 261° (W) 18:28:07 145.980 - 146.000
CUBESAT XI-V 23 Jan 18:22:08 18:23:29 11° 298° (WNW) 18:24:51 437.345
XW-2D 23 Jan 18:33:40 18:36:59 28° 264° (W) 18:40:19 145.860 - 145.880
UWE-3 23 Jan 18:36:23 18:39:59 25° 68° (ENE) 18:43:40 435.000/436.395/437.385
CUBEBUG 2 23 Jan 18:36:54 18:41:04 44° 72° (ENE) 18:45:24 437.445
HO-68 23 Jan 18:40:31 18:47:41 86° 75° (ENE) 18:54:53 435.675
AAUSAT CUBESAT 2 23 Jan 18:43:06 18:46:04 19° 68° (ENE) 18:49:00 437.432
XW-2B 23 Jan 18:52:08 18:54:49 18° 266° (W) 18:57:31 145.730 - 145.750
ZACube-1 23 Jan 18:53:25 18:56:39 20° 67° (ENE) 18:59:55 437.345
AO-73 23 Jan 18:58:15 19:01:27 20° 66° (ENE) 19:04:41 145.935
PCSat 23 Jan 19:00:06 19:05:33 85° 62° (ENE) 19:10:58 145.827
SEEDS 23 Jan 19:09:43 19:13:56 83° 261° (W) 19:18:09 437.485
AO-85 23 Jan 19:09:51 19:13:02 17° 44° (NE) 19:16:19 145.980
BEESAT 2 23 Jan 19:10:56 19:14:57 76° 59° (ENE) 19:18:53 435.950
CUTE-I 23 Jan 19:14:36 19:18:43 23° 266° (W) 19:22:49 437.470
KKS-1 23 Jan 19:15:36 19:18:44 19° 294° (WNW) 19:21:53 437.445
STRAND 1 23 Jan 19:16:51 19:21:02 25° 95° (E) 19:25:13 437.568
STARS 23 Jan 19:21:42 19:25:48 38° 289° (WNW) 19:29:53 437.465
XW-2A 23 Jan 19:24:07 19:27:23 43° 74° (ENE) 19:30:39 145.665 - 145.685
Oscar 11 23 Jan 19:27:40 19:31:09 24° 69° (ENE) 19:34:39 .
CUTE 1.7 + AOD 2 23 Jan 19:29:10 19:32:52 29° 264° (W) 19:36:36 437.475
nSIGHT-1 23 Jan 19:36:54 19:40:01 63° 139° (SE) 19:43:09 .
ISS 23 Jan 20:02:57 20:06:12 79° 140° (SE) 20:09:27 437.550
RS-15 23 Jan 20:05:27 20:11:17 16° 264° (W) 20:17:00 29.354- 29.394
UWE-3 23 Jan 20:12:22 20:16:16 30° 265° (W) 20:20:16 435.000/436.395/437.385
CUBEBUG 2 23 Jan 20:15:10 20:17:55 16° 269° (W) 20:20:43 437.445
AAUSAT CUBESAT 2 23 Jan 20:17:34 20:21:16 32° 263° (W) 20:24:58 437.432
DELFI C3 23 Jan 20:25:06 20:27:38 17° 68° (ENE) 20:30:11 145.870
Max Valier Satellite 23 Jan 20:26:22 20:27:02 10° 65° (ENE) 20:27:41 145.860
ZACube-1 23 Jan 20:28:28 20:32:37 38° 263° (W) 20:36:52 437.345
FO-29 23 Jan 20:30:18 20:35:22 52° 100° (E) 20:40:35 435.910
HO-68 23 Jan 20:32:09 20:36:10 16° 270° (W) 20:40:13 435.675
AO-73 23 Jan 20:33:11 20:37:21 39° 263° (W) 20:41:36 145.935
PCSat 23 Jan 20:46:28 20:48:08 11° 258° (WSW) 20:49:49 145.827
AO-85 23 Jan 20:48:57 20:53:59 80° 241° (WSW) 20:59:17 145.980
STRAND 1 23 Jan 20:55:33 21:00:16 37° 291° (WNW) 21:04:58 437.568
Oscar 11 23 Jan 21:03:24 21:07:08 28° 264° (W) 21:10:55 .
TIGRISAT 23 Jan 21:10:06 21:12:00 12° 90° (E) 21:13:54 435.000
nSIGHT-1 23 Jan 21:14:06 21:16:26 19° 336° (NNW) 21:18:46 .
UNISAT 6 23 Jan 21:24:58 21:28:26 20° 93° (E) 21:31:52 437.425
ISS 23 Jan 21:40:41 21:43:00 18° 338° (NNW) 21:45:20 437.550
Max Valier Satellite 23 Jan 21:56:42 22:00:20 51° 260° (W) 22:04:00 145.860
DELFI C3 23 Jan 21:58:34 22:02:06 32° 263° (W) 22:05:39 145.870
EO-88 23 Jan 22:07:36 22:11:11 59° 260° (W) 22:14:49 145.990 - 145.960
ESTCUBE 1 23 Jan 22:11:56 22:14:47 17° 65° (ENE) 22:17:39 437.505/2401.250
PRISM 23 Jan 22:13:56 22:15:10 11° 92° (E) 22:16:24 437.425
FO-29 23 Jan 22:16:43 22:20:06 18° 296° (WNW) 22:23:31 435.910
YUBILEINY 23 Jan 22:16:51 22:24:27 34° 85° (E) 22:32:00 435.215
TIGRISAT 23 Jan 22:44:25 22:49:05 63° 285° (WNW) 22:53:40 435.000
UNISAT 6 23 Jan 23:00:52 23:05:14 39° 289° (WNW) 23:09:34 437.425
SPROUT 23 Jan 23:05:07 23:07:10 13° 64° (ENE) 23:09:14 437.525
NO-84 23 Jan 23:10:01 23:12:38 34° 39° (NE) 23:15:20 435.350 FM
LO-87 23 Jan 23:16:12 23:19:45 72° 259° (WSW) 23:23:21 145.935 - 145.965
VELOX 1 23 Jan 23:33:19 23:35:55 16° 65° (ENE) 23:38:32 145.980
DUCHIFAT 1 23 Jan 23:39:15 23:40:39 11° 91° (E) 23:42:02 145.980
EO-79 23 Jan 23:43:26 23:46:23 18° 93° (E) 23:49:18 145.935-145.965
O/OREOS (USA 219) 23 Jan 23:45:41 23:49:47 36° 105° (ESE) 23:53:54 437.305
PRISM 23 Jan 23:46:44 23:50:42 52° 286° (WNW) 23:54:41 437.425
ESTCUBE 1 23 Jan 23:46:51 23:51:12 46° 261° (W) 23:55:33 437.505/2401.250
YUBILEINY 24 Jan 00:12:22 00:20:51 51° 283° (WNW) 00:29:22 435.215
AIST 2D 24 Jan 00:15:07 00:18:23 40° 286° (WNW) 00:21:38 435.315
POLYITAN 1 24 Jan 00:18:25 00:22:33 45° 99° (E) 00:26:39 437.675
nSIGHT-1 24 Jan 00:29:17 00:30:55 13° 17° (NNE) 00:32:32 .
NANOSAT C BR1 24 Jan 00:30:43 00:34:55 55° 100° (E) 00:39:04 145.865
SPROUT 24 Jan 00:38:26 00:42:34 52° 260° (W) 00:46:45 437.525
AO-91 24 Jan 00:41:48 00:42:55 11° 91° (E) 00:44:04 145.960
NO-84 24 Jan 00:47:54 00:49:34 14° 233° (SW) 00:51:16 435.350 FM
QB50P2 24 Jan 00:48:22 00:52:39 71° 284° (WNW) 00:56:53 145.880/145.840
UKube-1 24 Jan 00:56:02 00:58:17 14° 64° (ENE) 01:00:31 .
ISS 24 Jan 00:56:10 00:58:09 15° 19° (NNE) 01:00:09 437.550
Oscar 19 24 Jan 01:01:21 01:04:15 15° 91° (E) 01:07:09 437.125/150
50 SAT 24 Jan 01:05:09 01:07:21 18° 70° (ENE) 01:09:33 437.505
VELOX 1 24 Jan 01:07:44 01:11:57 46° 260° (W) 01:16:11 145.980
DUCHIFAT 1 24 Jan 01:12:27 01:16:37 56° 286° (WNW) 01:20:45 145.980
DX 1 24 Jan 01:13:17 01:17:13 36° 71° (ENE) 01:21:10 434.975-435.025
Gurwin Techsat 1B 24 Jan 01:14:14 01:17:19 15° 91° (E) 01:20:24 435.225
EO-79 24 Jan 01:18:17 01:22:13 36° 289° (WNW) 01:26:07 145.935-145.965
O/OREOS (USA 219) 24 Jan 01:25:50 01:29:17 21° 302° (WNW) 01:32:43 437.305
POLYITAN 1 24 Jan 01:55:22 01:57:55 16° 295° (WNW) 02:00:27 437.675
MOZHAYETS 4 24 Jan 01:56:09 01:59:23 19° 66° (ENE) 02:02:38
ITUPSAT 1 24 Jan 01:59:31 02:01:27 12° 61° (ENE) 02:03:22 437.325
BUGSAT 1 24 Jan 02:00:07 02:04:23 75° 285° (WNW) 02:08:36 437.445
nSIGHT-1 24 Jan 02:04:30 02:07:38 56° 35° (NE) 02:10:45 .
NANOSAT C BR1 24 Jan 02:08:10 02:10:07 13° 296° (WNW) 02:12:02 145.865
AO-91 24 Jan 02:14:58 02:19:39 79° 283° (WNW) 02:24:45 145.960
AO-7 24 Jan 02:21:45 02:24:33 12° 88° (E) 02:27:20 .
UKube-1 24 Jan 02:29:40 02:33:50 50° 260° (W) 02:38:02 .
ISS 24 Jan 02:31:51 02:35:07 70° 37° (NE) 02:38:22 437.550
BEESAT 24 Jan 02:34:21 02:38:22 28° 68° (ENE) 02:42:25 436.000
50 SAT 24 Jan 02:36:52 02:38:56 17° 265° (W) 02:41:01 437.505
Oscar 19 24 Jan 02:38:52 02:43:57 60° 287° (WNW) 02:49:00 437.125/150
DX 1 24 Jan 02:50:27 02:53:28 18° 266° (W) 02:56:31 434.975-435.025
Gurwin Techsat 1B 24 Jan 02:52:24 02:57:40 62° 287° (WNW) 03:02:53 435.225
FALCONSAT 3 24 Jan 03:03:23 03:06:28 25° 162° (SSE) 03:09:33 435.103
MOZHAYETS 4 24 Jan 03:31:49 03:36:11 42° 261° (W) 03:40:36
ITUPSAT 1 24 Jan 03:33:51 03:38:36 73° 257° (WSW) 03:43:26 437.325
nSIGHT-1 24 Jan 03:41:49 03:43:27 13° 231° (SW) 03:45:05 .
CUBESAT XI-V 24 Jan 03:43:53 03:48:30 63° 75° (ENE) 03:53:09 437.345
ITAMSAT 1 24 Jan 03:52:51 03:57:32 33° 97° (E) 04:02:13 435.822/435.867
DOVE 4 24 Jan 04:10:00 04:11:42 12° 92° (E) 04:13:27 437.250
ISS 24 Jan 04:10:06 04:11:10 11° 232° (SW) 04:12:13 437.550
AO-7 24 Jan 04:10:12 04:18:36 72° 106° (ESE) 04:26:54 .
BEESAT 24 Jan 04:11:55 04:16:02 29° 264° (W) 04:20:11 436.000
SO-50 24 Jan 04:17:58 04:21:46 29° 113° (ESE) 04:25:39 436.795
KKS-1 24 Jan 04:35:16 04:39:10 31° 70° (ENE) 04:43:04 437.445
FALCONSAT 3 24 Jan 04:41:38 04:45:11 45° 176° (S) 04:48:42 435.103
STARS 24 Jan 04:42:33 04:44:59 15° 64° (ENE) 04:47:24 437.465
M-CUBED/EXP-1 PRIME 24 Jan 05:11:15 05:13:56 23° 102° (ESE) 05:16:34 437.505
CUBESAT XI-V 24 Jan 05:24:25 05:26:15 12° 270° (W) 05:28:05 437.345
ITAMSAT 1 24 Jan 05:32:26 05:36:51 29° 293° (WNW) 05:41:16 435.822/435.867
DOVE 4 24 Jan 05:45:16 05:49:40 61° 285° (WNW) 05:54:18 437.250
KAITUO 1B 24 Jan 05:48:07 05:48:32 10° 91° (E) 05:48:57 145.475/437.950
NUDT-PHONESAT 24 Jan 05:51:53 05:52:44 11° 91° (E) 05:53:35 437.300
CUTE-I 24 Jan 05:52:26 05:56:03 18° 93° (E) 05:59:39 437.470
XW-2F 24 Jan 05:54:21 05:56:54 17° 94° (E) 05:59:27 145.980 - 146.000
SO-50 24 Jan 05:58:13 06:02:08 30° 310° (NW) 06:06:09 436.795
AO-7 24 Jan 06:04:03 06:10:35 26° 304° (NW) 06:17:06 .
XW-2D 24 Jan 06:06:42 06:09:59 28° 97° (E) 06:13:14 145.860 - 145.880
